Location: Gipe Farm
(40.9466°N, 95.5370°W)
Time: 22:20:32
(UTC-06:00)

Cosmos 1842 - Visible Passes

Search period start: 17 December 2014 00:00
Search period end: 27 December 2014 00:00
Orbit: 534 x 552 km, 82.5° (Epoch: 17 December)

Date Brightness Start Highest point End Pass type
(mag) Time Alt. Az. Time Alt. Az. Time Alt. Az.
17 Dec 5.9 05:33:46 10° NNE 05:36:40 19° ENE 05:39:33 10° ESE visible
17 Dec 4.3 07:09:35 10° NNW 07:12:57 27° W 07:16:18 10° SSW visible
17 Dec 5.5 19:27:42 10° SSW 19:28:55 19° SSW 19:28:55 19° SSW visible
18 Dec 5.8 05:27:15 10° NNE 05:30:12 20° ENE 05:33:08 10° ESE visible
18 Dec 4.3 07:03:08 10° NNW 07:06:27 26° W 07:09:46 10° SSW visible
18 Dec 4.7 19:21:14 10° SSW 19:23:33 33° SSW 19:23:33 33° SSW visible
19 Dec 5.8 05:20:42 10° NNE 05:23:43 21° ENE 05:26:43 10° ESE visible
19 Dec 4.3 06:56:41 10° NNW 06:59:57 26° W 07:03:14 10° SSW visible
19 Dec 3.9 19:14:45 10° SSW 19:18:08 54° WSW 19:18:08 54° WSW visible
20 Dec 5.7 05:14:10 10° NNE 05:17:14 21° ENE 05:20:17 10° SE visible
20 Dec 4.4 06:50:13 10° NW 06:53:27 25° W 06:56:40 10° SW visible
20 Dec 3.8 19:08:16 10° SSW 19:12:09 57° W 19:12:41 52° NW visible
21 Dec 5.6 05:08:31 14° NNE 05:10:44 22° ENE 05:13:50 10° SE visible
21 Dec 4.4 06:44:08 12° NW 06:46:56 24° W 06:50:07 10° SW visible
21 Dec 3.9 19:01:46 10° SSW 19:05:38 55° W 19:07:10 33° NNW visible
22 Dec 5.6 05:02:56 19° NE 05:04:13 23° ENE 05:07:23 10° SE visible
22 Dec 4.4 06:38:33 17° NW 06:40:24 23° W 06:43:32 10° SW visible
22 Dec 4.0 18:55:15 10° SSW 18:59:07 53° W 19:01:35 21° N visible
23 Dec 5.5 04:57:23 23° ENE 04:57:42 24° ENE 05:00:55 10° SE visible
23 Dec 4.5 06:33:01 21° WNW 06:33:52 22° W 06:36:57 10° SW visible
23 Dec 4.1 18:48:45 10° SSW 18:52:35 51° W 18:55:55 13° N visible
24 Dec 5.6 04:51:54 23° E 04:51:54 23° E 04:54:26 10° SE visible
24 Dec 4.5 06:27:32 22° W 06:27:32 22° W 06:30:21 10° SW visible
24 Dec 4.2 18:42:13 10° SSW 18:46:03 49° W 18:49:53 10° N visible
25 Dec 5.9 04:46:26 18° ESE 04:46:26 18° ESE 04:47:56 10° SE visible
25 Dec 4.9 06:22:04 18° WSW 06:22:04 18° WSW 06:23:45 10° SW visible
25 Dec 4.3 18:35:42 10° SSW 18:39:30 47° W 18:43:19 10° N visible
26 Dec 6.3 04:40:59 12° SE 04:40:59 12° SE 04:41:26 10° SE visible
26 Dec 5.4 06:16:37 12° SW 06:16:37 12° SW 06:17:08 10° SW visible
26 Dec 4.3 18:29:09 10° SSW 18:32:56 45° W 18:36:45 10° N visible
